Location: Claflin County Park
(44.8478°N, 87.5507°W)
Time: 07:03:22
(UTC+00:00)

COSMOS 2406 - Pass Details

Date: 10 December 2025
Orbit: 844 x 860 km, 71.0° (Epoch: 13 January)

Event Time Altitude Azimuth Distance (km) Brightness Sun altitude
Exits shadow 11:44:13 17° 250° (WSW) 2,027 4.7 -15.8°
Maximum altitude 11:47:56 34° 306° (NW) 1,367 3.8 -15.1°
Drops below altitude 10° 11:53:04 10° 11° (N) 2,475 5.6 -14.3°
Sets 11:55:46 0° 20° (NNE) 3,416 6.4 -13.8°
